Regional Weather Roundup
Issued by NWS

Home | Current Version | Previous Version | Graphics & Text | Print | Product List | Glossary On
Versions: 1 2 3 4 5 6 7 8 9 10 11 12 13 14 15 16 17 18 19 20 21 22 23 24 25 26 27 28 29 30 31 32 33 34 35 36 37 38 39 40 41 42 43 44 45 46 47 48 49 50
000
ASUS43 KLOT 162204
RWRIL

ILLINOIS REGIONAL WEATHER ROUNDUP
NATIONAL WEATHER SERVICE CHICAGO/ROMEOVILLE IL
500 PM CDT MON OCT 16 2017

NOTE: "FAIR" INDICATES FEW OR NO CLOUDS BELOW 12,000 FEET WITH NO
SIGNIFICANT WEATHER AND/OR OBSTRUCTIONS TO VISIBILITY.

* THESE STATIONS ARE NOT UNDER NWS QUALITY CONTROL. THEY ALSO MAY NOT
  REPORT WEATHER SUCH AS PRECIPITATION OR FOG.

ILZ001-002-007-009-015-016-024-162300-
NORTHWEST ILLINOIS

CITY           SKY/WX    TMP DP  RH WIND       PRES   REMARKS
MOLINE         SUNNY     65  35  33 W7        30.21F
SAVANNA*       SUNNY     64  33  31 W7        30.21S
$$

ILZ003-004-008-010-011-017-018-162300-
NORTH CENTRAL ILLINOIS

CITY           SKY/WX    TMP DP  RH WIND       PRES   REMARKS
ROCKFORD       SUNNY     61  33  35 SW8       30.22F
FREEPORT*      SUNNY     61  35  38 SW10G16   30.22F
ROCHELLE*      SUNNY     61  35  37 W10       30.23F
$$

ILZ005-006-012>014-019>023-162300-
NORTHEAST ILLINOIS

CITY           SKY/WX    TMP DP  RH WIND       PRES   REMARKS
CHICAGO-OHARE  SUNNY     62  35  36 W9        30.21F
CHICAGO-MIDWAY MOSUNNY   62  34  35 W9        30.22F
AURORA         SUNNY     61  37  41 SW9       30.23F
LANSING*       SUNNY     61  40  44 W9        30.24F
JOLIET*        SUNNY     64  36  36 W6        30.23F
WAUKEGAN       SUNNY     60  35  39 MISG      30.20F
DUPAGE AIRPORT SUNNY     61  37  41 SW15G21   30.21F
KANKAKEE*      SUNNY     63  36  36 W9        30.25F
WHEELING       SUNNY     63  35  35 W8        30.22F
NORTHERLY ISL    N/A     63  33  32 W5          N/A
$$

LMZ740>746-162300-
SOUTHERN LAKE MICHIGAN

STATION/POSITION SKY/WX   TEMP    WIND        PRES    VSBY  WAVE
                          AIR SEA DIR/SP/G                  HT/PER
                          (F)     (DEG/KT/KT) (MB)    (MI)  (FT/S)
SOUTHERN BUOY              57 62  220/ 10/ 14 1023.8          2/ 5
WILMETTE HARBOR            60 58  260/  8/ 10   N/A           1/ 5
HARRISON CRIB              62     260/ 14/ 15   N/A
BURNHAM HARBOR             62     250/  8/ 11   N/A
CALUMET HARBOR             63     230/  5/ 10 1022.8F
BURNS HARBOR               61     280/  6/ 10 1024.0F
MICHIGAN CITY              60        CALM       N/A
MICHIGAN CITY 6N           60 58  170/  2/  2   N/A           2/ 7
ST. JOSEPH                 57 56  210/  6/  6 1024.3F         2/ 5
$$

ILZ025>027-034>036-040-047-049-050-058-095>099-162300-
WEST-CENTRAL ILLINOIS

CITY           SKY/WX    TMP DP  RH WIND       PRES   REMARKS
QUINCY         SUNNY     65  35  33 W8        30.26F
GALESBURG*     SUNNY     63  37  36 SW7       30.25S
MACOMB*        SUNNY     65  36  33 W5        30.27F
JACKSONVILLE*  SUNNY     65  35  33 W6        30.27F
$$

ILZ028>032-037-038-041>044-048-051>054-059>061-162300-
CENTRAL ILLINOIS

CITY           SKY/WX    TMP DP  RH WIND       PRES   REMARKS
BLOOMINGTON    SUNNY     62  37  39 W12       30.26F
DECATUR        SUNNY     64  35  34 W7        30.27F
PEORIA         SUNNY     64  33  31 SW10      30.25F
LACON*         SUNNY     64  34  33 W8        30.24S
LINCOLN*       SUNNY     65  37  35 W3        30.26F
SPRINGFIELD    SUNNY     67  35  30 W9        30.27F
TAYLORVILLE    SUNNY     65  35  33 W7        30.28F
$$

ILZ033-039-045-046-055>057-062-063-162300-
EAST-CENTRAL ILLINOIS

CITY           SKY/WX    TMP DP  RH WIND       PRES   REMARKS
CHAMPAIGN      SUNNY     64  35  34 SW9       30.27F
DANVILLE*      SUNNY     62  35  36 SW6       30.25S
MATTOON        SUNNY     62  37  39 SW7       30.28F
PARIS*         SUNNY     63  37  38 SW7       30.29F
$$

ILZ079-100>102-162300-
SOUTHWEST ILLINOIS

CITY           SKY/WX    TMP DP  RH WIND       PRES   REMARKS
ALTON          SUNNY     64  39  39 W6        30.30F
BELLEVILLE     SUNNY     66  36  33 CALM      30.29F
CAHOKIA*       SUNNY     67  34  29 W5        30.29F
SPARTA*        SUNNY     64  34  33 CALM      30.32S
$$

ILZ064>066-069>071-074>076-080>082-084>086-088>090-092>094-162300-
SOUTH-CENTRAL ILLINOIS

CITY           SKY/WX    TMP DP  RH WIND       PRES   REMARKS
CARBONDALE     SUNNY     64  36  35 E5        30.31F
MARION         SUNNY     64  34  32 N9        30.32F
MT. VERNON     SUNNY     64  36  34 CALM      30.30F HAZE
CENTRALIA*     SUNNY     65  38  36 CALM      30.30S
METROPOLIS*    SUNNY     65  33  31 N8        30.31S
$$

ILZ067-068-072-073-078-083-087-091-162300-
SOUTHEAST ILLINOIS

CITY           SKY/WX    TMP DP  RH WIND       PRES   REMARKS
LAWRENCEVILLE  SUNNY    N/A N/A N/A CALM      30.31F
FLORA*         SUNNY     64  37  36 CALM      30.31F
FAIRFIELD*     SUNNY     63  35  35 NW3       30.30F
HARRISBURG*    SUNNY     64  37  36 NE7       30.32S
ROBINSON*      SUNNY     62  35  37 W6        30.31F
CARMI*         SUNNY     63  34  34 N3        30.31S
$$

ABBREVIATIONS USED IN REMARKS
   TC - TEMPERATURE IN CELSIUS
  WCI - WIND CHILL INDEX
   HX - HEAT INDEX
  VSB - VISIBILITY
$$




USA.gov is the U.S. government's official web portal to all federal, state and local government web resources and services.